Location: Unspecified
(0.0000°N, 0.0000°E)
Time: 08:58:05
(UTC+00:00)

SKYMED 4 - Visible Passes

Search period start: 22 April 2018 00:00
Search period end: 02 May 2018 00:00
Orbit: 621 x 623 km, 97.9° (Epoch: 21 April)

Date Brightness Start Highest point End Pass type
(mag) Time Alt. Az. Time Alt. Az. Time Alt. Az.
22 Apr 7.0 05:13:23 10° SE 05:17:19 34° ENE 05:21:15 10° NNE visible
23 Apr 5.7 05:31:00 10° SSE 05:35:18 64° ENE 05:39:35 10° N visible
25 Apr 7.7 18:16:31 10° NNW 18:20:12 27° WNW 18:23:53 10° SW visible
26 Apr 8.4 04:50:42 10° ESE 04:53:22 16° ENE 04:56:01 10° NE visible
26 Apr 8.5 18:35:36 10° NW 18:38:10 16° WNW 18:40:46 10° WSW visible
27 Apr 7.4 05:07:37 10° SE 05:11:20 28° ENE 05:15:03 10° NNE visible
28 Apr 6.1 05:25:06 10° SSE 05:29:19 51° ENE 05:33:31 10° N visible
01 May 8.5 04:45:21 10° ESE 04:47:22 13° ENE 04:49:24 10° NE visible
01 May 8.3 18:29:08 10° NNW 18:32:11 19° WNW 18:35:15 10° WSW visible
